owner,sensor,date,latitude,longitude,vertical_datum,wind_speed,wind_to_direction,wind_speed_of_gust,qcFlag 
NDBC,ioos:station:NOAA.NDBC:SGOF1:1,2018-09-01T00:00:00Z,29.4080,-84.8580,35.1,3.1,120.0,3.6,'1111122,1111122,1111122' 
NDBC,ioos:station:NOAA.NDBC:SGOF1:1,2018-09-01T01:00:00Z,29.4080,-84.8580,35.1,14.4,110.0,16.5,'1111122,1111122,1111122' 
NDBC,ioos:station:NOAA.NDBC:SGOF1:1,2018-09-01T02:00:00Z,29.4080,-84.8580,35.1,10.3,100.0,10.8,'1111122,1111122,1111122' 
NDBC,ioos:station:NOAA.NDBC:SGOF1:1,2018-09-01T03:00:00Z,29.4080,-84.8580,35.1,8.2,120.0,9.8,'1111122,1111122,1111122' 
NDBC,ioos:station:NOAA.NDBC:SGOF1:1,2018-09-01T04:00:00Z,29.4080,-84.8580,35.1,9.3,110.0,10.3,'1111122,1111122,1111122' 
NDBC,ioos:station:NOAA.NDBC:SGOF1:1,2018-09-01T05:00:00Z,29.4080,-84.8580,35.1,8.8,110.0,9.8,'1111122,1111122,1111122' 
NDBC,ioos:station:NOAA.NDBC:SGOF1:1,2018-09-01T06:00:00Z,29.4080,-84.8580,35.1,9.8,110.0,10.8,'1111122,1111122,1111122' 
NDBC,ioos:station:NOAA.NDBC:SGOF1:1,2018-09-01T07:00:00Z,29.4080,-84.8580,35.1,9.3,120.0,9.8,'1111122,1111122,1111122' 
NDBC,ioos:station:NOAA.NDBC:SGOF1:1,2018-09-01T08:00:00Z,29.4080,-84.8580,35.1,8.8,110.0,9.8,'1111122,1111122,1111122' 
NDBC,ioos:station:NOAA.NDBC:SGOF1:1,2018-09-01T09:00:00Z,29.4080,-84.8580,35.1,9.3,110.0,10.3,'1111122,1111122,1111122' 
NDBC,ioos:station:NOAA.NDBC:SGOF1:1,2018-09-01T10:00:00Z,29.4080,-84.8580,35.1,9.3,130.0,10.3,'1111122,1111122,1111122' 
NDBC,ioos:station:NOAA.NDBC:SGOF1:1,2018-09-01T11:00:00Z,29.4080,-84.8580,35.1,7.2,130.0,7.7,'1111122,1111122,1111122' 
NDBC,ioos:station:NOAA.NDBC:SGOF1:1,2018-09-01T12:00:00Z,29.4080,-84.8580,35.1,3.6,160.0,4.1,'1111122,1111122,1111122' 
NDBC,ioos:station:NOAA.NDBC:SGOF1:1,2018-09-01T13:00:00Z,29.4080,-84.8580,35.1,7.2,130.0,7.7,'1111122,1111122,1111122' 
NDBC,ioos:station:NOAA.NDBC:SGOF1:1,2018-09-01T14:00:00Z,29.4080,-84.8580,35.1,5.7,100.0,5.7,'1111122,1111122,1111122' 
NDBC,ioos:station:NOAA.NDBC:SGOF1:1,2018-09-01T15:00:00Z,29.4080,-84.8580,35.1,6.7,90.0,7.7,'1111122,1111122,1111122' 
NDBC,ioos:station:NOAA.NDBC:SGOF1:1,2018-09-01T16:00:00Z,29.4080,-84.8580,35.1,8.8,110.0,9.3,'1111122,1111122,1111122' 
NDBC,ioos:station:NOAA.NDBC:SGOF1:1,2018-09-01T17:00:00Z,29.4080,-84.8580,35.1,5.7,130.0,6.2,'1111122,1111122,1111122' 
NDBC,ioos:station:NOAA.NDBC:SGOF1:1,2018-09-01T18:00:00Z,29.4080,-84.8580,35.1,4.6,80.0,5.1,'1111122,1111122,1111122' 
NDBC,ioos:station:NOAA.NDBC:SGOF1:1,2018-09-01T19:00:00Z,29.4080,-84.8580,35.1,3.6,80.0,4.1,'1111122,1111122,1111122' 
NDBC,ioos:station:NOAA.NDBC:SGOF1:1,2018-09-01T20:00:00Z,29.4080,-84.8580,35.1,3.1,110.0,3.6,'1111122,1111122,1111122' 
NDBC,ioos:station:NOAA.NDBC:SGOF1:1,2018-09-01T22:00:00Z,29.4080,-84.8580,35.1,5.1,110.0,6.2,'1111122,1111122,1111122' 
NDBC,ioos:station:NOAA.NDBC:SGOF1:1,2018-09-01T23:00:00Z,29.4080,-84.8580,35.1,3.6,130.0,4.1,'1111122,1111122,1111122' 
NDBC,ioos:station:NOAA.NDBC:SGOF1:1,2018-09-02T00:00:00Z,29.4080,-84.8580,35.1,2.6,130.0,3.1,'1111122,1111122,1111122' 
NDBC,ioos:station:NOAA.NDBC:SGOF1:1,2018-09-02T01:00:00Z,29.4080,-84.8580,35.1,4.1,100.0,4.6,'1111122,1111122,1111122' 
NDBC,ioos:station:NOAA.NDBC:SGOF1:1,2018-09-02T02:00:00Z,29.4080,-84.8580,35.1,5.7,100.0,6.2,'1111122,1111122,1111122' 
NDBC,ioos:station:NOAA.NDBC:SGOF1:1,2018-09-02T03:00:00Z,29.4080,-84.8580,35.1,3.1,90.0,3.1,'1111122,1111122,1111122' 
NDBC,ioos:station:NOAA.NDBC:SGOF1:1,2018-09-02T04:00:00Z,29.4080,-84.8580,35.1,3.6,80.0,4.1,'1111122,1111122,1111122' 
NDBC,ioos:station:NOAA.NDBC:SGOF1:1,2018-09-02T05:00:00Z,29.4080,-84.8580,35.1,6.7,90.0,7.2,'1111122,1111122,1111122' 
NDBC,ioos:station:NOAA.NDBC:SGOF1:1,2018-09-02T06:00:00Z,29.4080,-84.8580,35.1,10.3,200.0,11.8,'1111122,1111122,1111122' 
NDBC,ioos:station:NOAA.NDBC:SGOF1:1,2018-09-02T07:00:00Z,29.4080,-84.8580,35.1,10.8,150.0,11.3,'1111122,1111122,1111122' 
NDBC,ioos:station:NOAA.NDBC:SGOF1:1,2018-09-02T08:00:00Z,29.4080,-84.8580,35.1,8.2,140.0,8.8,'1111122,1111122,1111122' 
NDBC,ioos:station:NOAA.NDBC:SGOF1:1,2018-09-02T09:00:00Z,29.4080,-84.8580,35.1,8.2,110.0,8.8,'1111122,1111122,1111122' 
NDBC,ioos:station:NOAA.NDBC:SGOF1:1,2018-09-02T10:00:00Z,29.4080,-84.8580,35.1,7.7,110.0,8.2,'1111122,1111122,1111122' 
NDBC,ioos:station:NOAA.NDBC:SGOF1:1,2018-09-02T11:00:00Z,29.4080,-84.8580,35.1,7.7,130.0,8.2,'1111122,1111122,1111122' 
NDBC,ioos:station:NOAA.NDBC:SGOF1:1,2018-09-02T12:00:00Z,29.4080,-84.8580,35.1,6.7,130.0,7.2,'1111122,1111122,1111122' 
NDBC,ioos:station:NOAA.NDBC:SGOF1:1,2018-09-02T13:00:00Z,29.4080,-84.8580,35.1,5.7,130.0,6.7,'1111122,1111122,1111122' 
NDBC,ioos:station:NOAA.NDBC:SGOF1:1,2018-09-02T14:00:00Z,29.4080,-84.8580,35.1,8.2,120.0,8.8,'1111122,1111122,1111122' 
NDBC,ioos:station:NOAA.NDBC:SGOF1:1,2018-09-02T15:00:00Z,29.4080,-84.8580,35.1,8.2,120.0,8.2,'1111122,1111122,1111122' 
NDBC,ioos:station:NOAA.NDBC:SGOF1:1,2018-09-02T16:00:00Z,29.4080,-84.8580,35.1,7.2,120.0,7.7,'1111122,1111122,1111122' 
NDBC,ioos:station:NOAA.NDBC:SGOF1:1,2018-09-02T17:00:00Z,29.4080,-84.8580,35.1,6.2,110.0,7.2,'1111122,1111122,1111122' 
NDBC,ioos:station:NOAA.NDBC:SGOF1:1,2018-09-02T18:00:00Z,29.4080,-84.8580,35.1,7.7,100.0,8.2,'1111122,1111122,1111122' 
NDBC,ioos:station:NOAA.NDBC:SGOF1:1,2018-09-02T19:00:00Z,29.4080,-84.8580,35.1,6.7,100.0,7.7,'1111122,1111122,1111122' 
NDBC,ioos:station:NOAA.NDBC:SGOF1:1,2018-09-02T20:00:00Z,29.4080,-84.8580,35.1,6.2,80.0,6.7,'1111122,1111122,1111122' 
NDBC,ioos:station:NOAA.NDBC:SGOF1:1,2018-09-02T21:00:00Z,29.4080,-84.8580,35.1,4.1,90.0,5.1,'1111122,1111122,1111122' 
NDBC,ioos:station:NOAA.NDBC:SGOF1:1,2018-09-02T22:00:00Z,29.4080,-84.8580,35.1,5.1,90.0,5.7,'1111122,1111122,1111122' 
NDBC,ioos:station:NOAA.NDBC:SGOF1:1,2018-09-02T23:00:00Z,29.4080,-84.8580,35.1,10.8,90.0,11.8,'1111122,1111122,1111122' 
NDBC,ioos:station:NOAA.NDBC:SGOF1:1,2018-09-03T00:00:00Z,29.4080,-84.8580,35.1,10.3,100.0,11.3,'1111122,1111122,1111122' 
NDBC,ioos:station:NOAA.NDBC:SGOF1:1,2018-09-03T02:00:00Z,29.4080,-84.8580,35.1,7.2,100.0,7.7,'1111122,1111122,1111122' 
NDBC,ioos:station:NOAA.NDBC:SGOF1:1,2018-09-03T03:00:00Z,29.4080,-84.8580,35.1,8.2,100.0,8.8,'1111122,1111122,1111122' 
NDBC,ioos:station:NOAA.NDBC:SGOF1:1,2018-09-03T04:00:00Z,29.4080,-84.8580,35.1,10.3,100.0,10.8,'1111122,1111122,1111122' 
NDBC,ioos:station:NOAA.NDBC:SGOF1:1,2018-09-03T06:00:00Z,29.4080,-84.8580,35.1,10.3,110.0,10.8,'1111122,1111122,1111122' 
NDBC,ioos:station:NOAA.NDBC:SGOF1:1,2018-09-03T07:00:00Z,29.4080,-84.8580,35.1,9.8,100.0,10.8,'1111122,1111122,1111122' 
NDBC,ioos:station:NOAA.NDBC:SGOF1:1,2018-09-03T08:00:00Z,29.4080,-84.8580,35.1,8.8,100.0,9.3,'1111122,1111122,1111122' 
NDBC,ioos:station:NOAA.NDBC:SGOF1:1,2018-09-03T09:00:00Z,29.4080,-84.8580,35.1,8.2,110.0,9.3,'1111122,1111122,1111122' 
NDBC,ioos:station:NOAA.NDBC:SGOF1:1,2018-09-03T10:00:00Z,29.4080,-84.8580,35.1,10.3,90.0,11.3,'1111122,1111122,1111122' 
NDBC,ioos:station:NOAA.NDBC:SGOF1:1,2018-09-03T12:00:00Z,29.4080,-84.8580,35.1,10.3,90.0,11.8,'1111122,1111122,1111122' 
NDBC,ioos:station:NOAA.NDBC:SGOF1:1,2018-09-03T13:00:00Z,29.4080,-84.8580,35.1,10.3,100.0,10.8,'1111122,1111122,1111122' 
NDBC,ioos:station:NOAA.NDBC:SGOF1:1,2018-09-03T15:00:00Z,29.4080,-84.8580,35.1,9.8,100.0,11.3,'1111122,1111122,1111122' 
NDBC,ioos:station:NOAA.NDBC:SGOF1:1,2018-09-03T16:00:00Z,29.4080,-84.8580,35.1,9.8,90.0,10.8,'1111122,1111122,1111122' 
NDBC,ioos:station:NOAA.NDBC:SGOF1:1,2018-09-03T17:00:00Z,29.4080,-84.8580,35.1,8.8,90.0,10.3,'1111122,1111122,1111122' 
NDBC,ioos:station:NOAA.NDBC:SGOF1:1,2018-09-03T18:00:00Z,29.4080,-84.8580,35.1,8.8,90.0,9.3,'1111122,1111122,1111122' 
NDBC,ioos:station:NOAA.NDBC:SGOF1:1,2018-09-03T19:00:00Z,29.4080,-84.8580,35.1,7.7,90.0,8.8,'1111122,1111122,1111122' 
NDBC,ioos:station:NOAA.NDBC:SGOF1:1,2018-09-03T20:00:00Z,29.4080,-84.8580,35.1,5.7,90.0,6.7,'1111122,1111122,1111122' 
NDBC,ioos:station:NOAA.NDBC:SGOF1:1,2018-09-03T21:00:00Z,29.4080,-84.8580,35.1,9.8,80.0,11.3,'1111122,1111122,1111122' 
NDBC,ioos:station:NOAA.NDBC:SGOF1:1,2018-09-03T22:00:00Z,29.4080,-84.8580,35.1,14.9,100.0,16.0,'1111122,1111122,1111122' 
NDBC,ioos:station:NOAA.NDBC:SGOF1:1,2018-09-03T23:00:00Z,29.4080,-84.8580,35.1,12.9,110.0,15.4,'1111122,1111122,1111122' 
NDBC,ioos:station:NOAA.NDBC:SGOF1:1,2018-09-04T00:00:00Z,29.4080,-84.8580,35.1,10.3,100.0,11.3,'1111122,1111122,1111122' 
NDBC,ioos:station:NOAA.NDBC:SGOF1:1,2018-09-04T01:00:00Z,29.4080,-84.8580,35.1,11.3,100.0,12.4,'1111122,1111122,1111122' 
NDBC,ioos:station:NOAA.NDBC:SGOF1:1,2018-09-04T02:00:00Z,29.4080,-84.8580,35.1,11.8,80.0,12.9,'1111122,1111122,1111122' 
NDBC,ioos:station:NOAA.NDBC:SGOF1:1,2018-09-04T03:00:00Z,29.4080,-84.8580,35.1,12.9,80.0,13.9,'1111122,1111122,1111122' 
NDBC,ioos:station:NOAA.NDBC:SGOF1:1,2018-09-04T05:00:00Z,29.4080,-84.8580,35.1,13.4,100.0,14.4,'1111122,1111122,1111122' 
NDBC,ioos:station:NOAA.NDBC:SGOF1:1,2018-09-04T06:00:00Z,29.4080,-84.8580,35.1,12.9,90.0,14.4,'1111122,1111122,1111122' 
NDBC,ioos:station:NOAA.NDBC:SGOF1:1,2018-09-04T07:00:00Z,29.4080,-84.8580,35.1,12.4,100.0,13.9,'1111122,1111122,1111122' 
NDBC,ioos:station:NOAA.NDBC:SGOF1:1,2018-09-04T08:00:00Z,29.4080,-84.8580,35.1,13.9,100.0,15.4,'1111122,1111122,1111122' 
NDBC,ioos:station:NOAA.NDBC:SGOF1:1,2018-09-04T09:00:00Z,29.4080,-84.8580,35.1,13.9,100.0,15.4,'1111122,1111122,1111122' 
NDBC,ioos:station:NOAA.NDBC:SGOF1:1,2018-09-04T11:00:00Z,29.4080,-84.8580,35.1,16.0,90.0,18.0,'1111122,1111122,1111122' 
NDBC,ioos:station:NOAA.NDBC:SGOF1:1,2018-09-04T13:00:00Z,29.4080,-84.8580,35.1,11.3,110.0,12.4,'1111122,1111122,1111122' 
NDBC,ioos:station:NOAA.NDBC:SGOF1:1,2018-09-04T15:00:00Z,29.4080,-84.8580,35.1,19.6,160.0,24.7,'1111122,1111122,1111122' 
NDBC,ioos:station:NOAA.NDBC:SGOF1:1,2018-09-04T17:00:00Z,29.4080,-84.8580,35.1,14.4,120.0,15.4,'1111122,1111122,1111122' 
NDBC,ioos:station:NOAA.NDBC:SGOF1:1,2018-09-04T18:00:00Z,29.4080,-84.8580,35.1,11.8,140.0,12.9,'1111122,1111122,1111122' 
NDBC,ioos:station:NOAA.NDBC:SGOF1:1,2018-09-04T19:00:00Z,29.4080,-84.8580,35.1,11.8,150.0,12.9,'1111122,1111122,1111122' 
NDBC,ioos:station:NOAA.NDBC:SGOF1:1,2018-09-04T20:00:00Z,29.4080,-84.8580,35.1,9.8,160.0,10.3,'1111122,1111122,1111122' 
NDBC,ioos:station:NOAA.NDBC:SGOF1:1,2018-09-04T21:00:00Z,29.4080,-84.8580,35.1,7.7,160.0,8.2,'1111122,1111122,1111122' 
NDBC,ioos:station:NOAA.NDBC:SGOF1:1,2018-09-04T22:00:00Z,29.4080,-84.8580,35.1,5.1,150.0,5.7,'1111122,1111122,1111122' 
NDBC,ioos:station:NOAA.NDBC:SGOF1:1,2018-09-04T23:00:00Z,29.4080,-84.8580,35.1,5.7,130.0,6.2,'1111122,1111122,1111122' 
NDBC,ioos:station:NOAA.NDBC:SGOF1:1,2018-09-05T00:00:00Z,29.4080,-84.8580,35.1,4.1,130.0,4.6,'1111122,1111122,1111122' 
NDBC,ioos:station:NOAA.NDBC:SGOF1:1,2018-09-05T02:00:00Z,29.4080,-84.8580,35.1,9.3,120.0,10.3,'1111122,1111122,1111122' 
NDBC,ioos:station:NOAA.NDBC:SGOF1:1,2018-09-05T03:00:00Z,29.4080,-84.8580,35.1,7.7,110.0,8.2,'1111122,1111122,1111122' 
NDBC,ioos:station:NOAA.NDBC:SGOF1:1,2018-09-05T04:00:00Z,29.4080,-84.8580,35.1,8.2,120.0,8.8,'1111122,1111122,1111122' 
NDBC,ioos:station:NOAA.NDBC:SGOF1:1,2018-09-05T05:00:00Z,29.4080,-84.8580,35.1,10.3,110.0,10.8,'1111122,1111122,1111122' 
NDBC,ioos:station:NOAA.NDBC:SGOF1:1,2018-09-05T06:00:00Z,29.4080,-84.8580,35.1,10.3,110.0,11.3,'1111122,1111122,1111122' 
NDBC,ioos:station:NOAA.NDBC:SGOF1:1,2018-09-05T08:00:00Z,29.4080,-84.8580,35.1,9.8,130.0,10.8,'1111122,1111122,1111122' 
NDBC,ioos:station:NOAA.NDBC:SGOF1:1,2018-09-05T09:00:00Z,29.4080,-84.8580,35.1,11.8,120.0,12.9,'1111122,1111122,1111122' 
NDBC,ioos:station:NOAA.NDBC:SGOF1:1,2018-09-05T10:00:00Z,29.4080,-84.8580,35.1,6.7,140.0,7.7,'1111122,1111122,1111122' 
NDBC,ioos:station:NOAA.NDBC:SGOF1:1,2018-09-05T11:00:00Z,29.4080,-84.8580,35.1,10.3,140.0,11.3,'1111122,1111122,1111122' 
NDBC,ioos:station:NOAA.NDBC:SGOF1:1,2018-09-05T12:00:00Z,29.4080,-84.8580,35.1,9.8,140.0,10.3,'1111122,1111122,1111122' 
NDBC,ioos:station:NOAA.NDBC:SGOF1:1,2018-09-05T13:00:00Z,29.4080,-84.8580,35.1,10.3,140.0,10.3,'1111122,1111122,1111122' 
NDBC,ioos:station:NOAA.NDBC:SGOF1:1,2018-09-05T14:00:00Z,29.4080,-84.8580,35.1,9.8,130.0,10.3,'1111122,1111122,1111122' 
NDBC,ioos:station:NOAA.NDBC:SGOF1:1,2018-09-05T16:00:00Z,29.4080,-84.8580,35.1,7.7,140.0,8.2,'1111122,1111122,1111122' 
NDBC,ioos:station:NOAA.NDBC:SGOF1:1,2018-09-05T17:00:00Z,29.4080,-84.8580,35.1,6.2,130.0,6.7,'1111122,1111122,1111122' 
NDBC,ioos:station:NOAA.NDBC:SGOF1:1,2018-09-05T19:00:00Z,29.4080,-84.8580,35.1,6.2,130.0,6.7,'1111122,1111122,1111122' 
NDBC,ioos:station:NOAA.NDBC:SGOF1:1,2018-09-05T20:00:00Z,29.4080,-84.8580,35.1,5.7,130.0,5.7,'1111122,1111122,1111122' 
NDBC,ioos:station:NOAA.NDBC:SGOF1:1,2018-09-05T21:00:00Z,29.4080,-84.8580,35.1,4.6,140.0,5.1,'1111122,1111122,1111122' 
NDBC,ioos:station:NOAA.NDBC:SGOF1:1,2018-09-05T22:00:00Z,29.4080,-84.8580,35.1,2.6,150.0,3.1,'1111122,1111122,1111122' 
NDBC,ioos:station:NOAA.NDBC:SGOF1:1,2018-09-05T23:00:00Z,29.4080,-84.8580,35.1,2.1,120.0,2.1,'1111122,1111122,1111122' 
NDBC,ioos:station:NOAA.NDBC:SGOF1:1,2018-09-06T00:00:00Z,29.4080,-84.8580,35.1,0.0,-9999.0,0.5,'1114422,1111122,1111122' 
NDBC,ioos:station:NOAA.NDBC:SGOF1:1,2018-09-06T01:00:00Z,29.4080,-84.8580,35.1,0.5,160.0,1.0,'1111122,1111122,1111122' 
NDBC,ioos:station:NOAA.NDBC:SGOF1:1,2018-09-06T02:00:00Z,29.4080,-84.8580,35.1,0.0,-9999.0,0.5,'1114422,1111122,1111122' 
NDBC,ioos:station:NOAA.NDBC:SGOF1:1,2018-09-06T04:00:00Z,29.4080,-84.8580,35.1,4.1,70.0,5.1,'1111122,1111122,1111122' 
NDBC,ioos:station:NOAA.NDBC:SGOF1:1,2018-09-06T05:00:00Z,29.4080,-84.8580,35.1,2.1,100.0,3.1,'1111122,1111122,1111122' 
NDBC,ioos:station:NOAA.NDBC:SGOF1:1,2018-09-06T06:00:00Z,29.4080,-84.8580,35.1,1.5,120.0,2.6,'1111122,1111122,1111122' 
NDBC,ioos:station:NOAA.NDBC:SGOF1:1,2018-09-06T07:00:00Z,29.4080,-84.8580,35.1,4.1,130.0,4.6,'1111122,1111122,1111122' 
NDBC,ioos:station:NOAA.NDBC:SGOF1:1,2018-09-06T08:00:00Z,29.4080,-84.8580,35.1,4.6,150.0,5.1,'1111122,1111122,1111122' 
NDBC,ioos:station:NOAA.NDBC:SGOF1:1,2018-09-06T09:00:00Z,29.4080,-84.8580,35.1,5.1,130.0,5.7,'1111122,1111122,1111122' 
NDBC,ioos:station:NOAA.NDBC:SGOF1:1,2018-09-06T10:00:00Z,29.4080,-84.8580,35.1,4.6,130.0,5.1,'1111122,1111122,1111122' 
NDBC,ioos:station:NOAA.NDBC:SGOF1:1,2018-09-06T11:00:00Z,29.4080,-84.8580,35.1,4.1,130.0,4.6,'1111122,1111122,1111122' 
NDBC,ioos:station:NOAA.NDBC:SGOF1:1,2018-09-06T12:00:00Z,29.4080,-84.8580,35.1,5.7,100.0,6.2,'1111122,1111122,1111122' 
NDBC,ioos:station:NOAA.NDBC:SGOF1:1,2018-09-06T14:00:00Z,29.4080,-84.8580,35.1,5.7,90.0,6.7,'1111122,1111122,1111122' 
NDBC,ioos:station:NOAA.NDBC:SGOF1:1,2018-09-06T15:00:00Z,29.4080,-84.8580,35.1,6.2,90.0,6.7,'1111122,1111122,1111122' 
NDBC,ioos:station:NOAA.NDBC:SGOF1:1,2018-09-06T17:00:00Z,29.4080,-84.8580,35.1,6.7,90.0,7.2,'1111122,1111122,1111122' 
NDBC,ioos:station:NOAA.NDBC:SGOF1:1,2018-09-06T18:00:00Z,29.4080,-84.8580,35.1,6.7,80.0,7.2,'1111122,1111122,1111122' 
NDBC,ioos:station:NOAA.NDBC:SGOF1:1,2018-09-06T19:00:00Z,29.4080,-84.8580,35.1,7.2,80.0,7.7,'1111122,1111122,1111122' 
NDBC,ioos:station:NOAA.NDBC:SGOF1:1,2018-09-06T20:00:00Z,29.4080,-84.8580,35.1,4.1,70.0,5.1,'1111122,1111122,1111122' 
NDBC,ioos:station:NOAA.NDBC:SGOF1:1,2018-09-06T21:00:00Z,29.4080,-84.8580,35.1,3.1,90.0,3.6,'1111122,1111122,1111122' 
NDBC,ioos:station:NOAA.NDBC:SGOF1:1,2018-09-06T22:00:00Z,29.4080,-84.8580,35.1,0.0,-9999.0,0.5,'1114422,1111122,1111122' 
NDBC,ioos:station:NOAA.NDBC:SGOF1:1,2018-09-07T02:00:00Z,29.4080,-84.8580,35.1,10.3,70.0,11.8,'1111122,1111122,1111122' 
NDBC,ioos:station:NOAA.NDBC:SGOF1:1,2018-09-07T03:00:00Z,29.4080,-84.8580,35.1,6.2,40.0,6.7,'1111122,1111122,1111122' 
NDBC,ioos:station:NOAA.NDBC:SGOF1:1,2018-09-07T04:00:00Z,29.4080,-84.8580,35.1,12.4,150.0,14.4,'1111122,1111122,1111122' 
NDBC,ioos:station:NOAA.NDBC:SGOF1:1,2018-09-07T05:00:00Z,29.4080,-84.8580,35.1,2.1,190.0,2.6,'1111122,1111122,1111122' 
NDBC,ioos:station:NOAA.NDBC:SGOF1:1,2018-09-07T06:00:00Z,29.4080,-84.8580,35.1,3.1,40.0,3.6,'1111122,1111122,1111122' 
NDBC,ioos:station:NOAA.NDBC:SGOF1:1,2018-09-07T07:00:00Z,29.4080,-84.8580,35.1,5.1,40.0,5.7,'1111122,1111122,1111122' 
NDBC,ioos:station:NOAA.NDBC:SGOF1:1,2018-09-07T08:00:00Z,29.4080,-84.8580,35.1,4.6,80.0,5.1,'1111122,1111122,1111122' 
NDBC,ioos:station:NOAA.NDBC:SGOF1:1,2018-09-07T09:00:00Z,29.4080,-84.8580,35.1,5.1,80.0,5.7,'1111122,1111122,1111122' 
NDBC,ioos:station:NOAA.NDBC:SGOF1:1,2018-09-07T10:00:00Z,29.4080,-84.8580,35.1,6.2,70.0,6.2,'1111122,1111122,1111122' 
NDBC,ioos:station:NOAA.NDBC:SGOF1:1,2018-09-07T11:00:00Z,29.4080,-84.8580,35.1,2.6,90.0,3.6,'1111122,1111122,1111122' 
NDBC,ioos:station:NOAA.NDBC:SGOF1:1,2018-09-07T12:00:00Z,29.4080,-84.8580,35.1,6.2,100.0,6.7,'1111122,1111122,1111122' 
NDBC,ioos:station:NOAA.NDBC:SGOF1:1,2018-09-07T13:00:00Z,29.4080,-84.8580,35.1,6.2,90.0,6.7,'1111122,1111122,1111122' 
NDBC,ioos:station:NOAA.NDBC:SGOF1:1,2018-09-07T14:00:00Z,29.4080,-84.8580,35.1,5.7,110.0,6.2,'1111122,1111122,1111122' 
NDBC,ioos:station:NOAA.NDBC:SGOF1:1,2018-09-07T16:00:00Z,29.4080,-84.8580,35.1,5.7,100.0,6.2,'1111122,1111122,1111122' 
NDBC,ioos:station:NOAA.NDBC:SGOF1:1,2018-09-07T17:00:00Z,29.4080,-84.8580,35.1,5.7,100.0,6.7,'1111122,1111122,1111122' 
NDBC,ioos:station:NOAA.NDBC:SGOF1:1,2018-09-07T18:00:00Z,29.4080,-84.8580,35.1,5.7,90.0,5.7,'1111122,1111122,1111122' 
NDBC,ioos:station:NOAA.NDBC:SGOF1:1,2018-09-07T20:00:00Z,29.4080,-84.8580,35.1,4.1,90.0,4.6,'1111122,1111122,1111122' 
NDBC,ioos:station:NOAA.NDBC:SGOF1:1,2018-09-07T21:00:00Z,29.4080,-84.8580,35.1,2.1,100.0,2.6,'1111122,1111122,1111122' 
NDBC,ioos:station:NOAA.NDBC:SGOF1:1,2018-09-07T22:00:00Z,29.4080,-84.8580,35.1,2.1,100.0,2.6,'1111122,1111122,1111122' 
NDBC,ioos:station:NOAA.NDBC:SGOF1:1,2018-09-07T23:00:00Z,29.4080,-84.8580,35.1,3.1,90.0,3.1,'1111122,1111122,1111122' 
NDBC,ioos:station:NOAA.NDBC:SGOF1:1,2018-09-08T00:00:00Z,29.4080,-84.8580,35.1,2.1,90.0,2.6,'1111122,1111122,1111122' 
NDBC,ioos:station:NOAA.NDBC:SGOF1:1,2018-09-08T01:00:00Z,29.4080,-84.8580,35.1,1.5,160.0,2.1,'1111122,1111122,1111122' 
NDBC,ioos:station:NOAA.NDBC:SGOF1:1,2018-09-08T02:00:00Z,29.4080,-84.8580,35.1,1.0,160.0,1.0,'1111122,1111122,1111122' 
NDBC,ioos:station:NOAA.NDBC:SGOF1:1,2018-09-08T03:00:00Z,29.4080,-84.8580,35.1,1.0,100.0,1.0,'1111122,1111122,1111122' 
NDBC,ioos:station:NOAA.NDBC:SGOF1:1,2018-09-08T04:00:00Z,29.4080,-84.8580,35.1,1.5,80.0,2.6,'1111122,1111122,1111122' 
NDBC,ioos:station:NOAA.NDBC:SGOF1:1,2018-09-08T05:00:00Z,29.4080,-84.8580,35.1,1.0,80.0,1.5,'1111122,1111122,1111122' 
NDBC,ioos:station:NOAA.NDBC:SGOF1:1,2018-09-08T06:00:00Z,29.4080,-84.8580,35.1,4.6,80.0,5.7,'1111122,1111122,1111122' 
NDBC,ioos:station:NOAA.NDBC:SGOF1:1,2018-09-08T07:00:00Z,29.4080,-84.8580,35.1,2.1,70.0,2.1,'1111122,1111122,1111122' 
NDBC,ioos:station:NOAA.NDBC:SGOF1:1,2018-09-08T08:00:00Z,29.4080,-84.8580,35.1,2.1,110.0,2.1,'1111122,1111122,1111122' 
NDBC,ioos:station:NOAA.NDBC:SGOF1:1,2018-09-08T09:00:00Z,29.4080,-84.8580,35.1,3.1,130.0,3.1,'1111122,1111122,1111122' 
NDBC,ioos:station:NOAA.NDBC:SGOF1:1,2018-09-08T10:00:00Z,29.4080,-84.8580,35.1,2.6,130.0,3.1,'1111122,1111122,1111122' 
NDBC,ioos:station:NOAA.NDBC:SGOF1:1,2018-09-08T12:00:00Z,29.4080,-84.8580,35.1,2.1,150.0,2.1,'1111122,1111122,1111122' 
NDBC,ioos:station:NOAA.NDBC:SGOF1:1,2018-09-08T13:00:00Z,29.4080,-84.8580,35.1,3.1,130.0,3.6,'1111122,1111122,1111122' 
NDBC,ioos:station:NOAA.NDBC:SGOF1:1,2018-09-08T14:00:00Z,29.4080,-84.8580,35.1,3.6,150.0,3.6,'1111122,1111122,1111122' 
NDBC,ioos:station:NOAA.NDBC:SGOF1:1,2018-09-08T16:00:00Z,29.4080,-84.8580,35.1,0.5,190.0,1.0,'1111122,1111122,1111122' 
NDBC,ioos:station:NOAA.NDBC:SGOF1:1,2018-09-08T17:00:00Z,29.4080,-84.8580,35.1,2.1,170.0,2.1,'1111122,1111122,1111122' 
NDBC,ioos:station:NOAA.NDBC:SGOF1:1,2018-09-08T19:00:00Z,29.4080,-84.8580,35.1,3.6,160.0,4.1,'1111122,1111122,1111122' 
NDBC,ioos:station:NOAA.NDBC:SGOF1:1,2018-09-08T20:00:00Z,29.4080,-84.8580,35.1,2.1,180.0,2.6,'1111122,1111122,1111122' 
NDBC,ioos:station:NOAA.NDBC:SGOF1:1,2018-09-08T21:00:00Z,29.4080,-84.8580,35.1,2.1,170.0,2.1,'1111122,1111122,1111122' 
NDBC,ioos:station:NOAA.NDBC:SGOF1:1,2018-09-08T22:00:00Z,29.4080,-84.8580,35.1,2.1,200.0,2.6,'1111122,1111122,1111122' 
NDBC,ioos:station:NOAA.NDBC:SGOF1:1,2018-09-08T23:00:00Z,29.4080,-84.8580,35.1,1.5,200.0,2.1,'1111122,1111122,1111122' 
NDBC,ioos:station:NOAA.NDBC:SGOF1:1,2018-09-09T00:00:00Z,29.4080,-84.8580,35.1,1.0,180.0,1.5,'1111122,1111122,1111122' 
NDBC,ioos:station:NOAA.NDBC:SGOF1:1,2018-09-09T01:00:00Z,29.4080,-84.8580,35.1,2.6,190.0,2.6,'1111122,1111122,1111122' 
NDBC,ioos:station:NOAA.NDBC:SGOF1:1,2018-09-09T02:00:00Z,29.4080,-84.8580,35.1,3.1,190.0,3.6,'1111122,1111122,1111122' 
NDBC,ioos:station:NOAA.NDBC:SGOF1:1,2018-09-09T03:00:00Z,29.4080,-84.8580,35.1,2.6,200.0,3.1,'1111122,1111122,1111122' 
NDBC,ioos:station:NOAA.NDBC:SGOF1:1,2018-09-09T04:00:00Z,29.4080,-84.8580,35.1,2.1,190.0,2.1,'1111122,1111122,1111122' 
NDBC,ioos:station:NOAA.NDBC:SGOF1:1,2018-09-09T05:00:00Z,29.4080,-84.8580,35.1,2.6,180.0,3.1,'1111122,1111122,1111122' 
NDBC,ioos:station:NOAA.NDBC:SGOF1:1,2018-09-09T06:00:00Z,29.4080,-84.8580,35.1,2.1,170.0,2.6,'1111122,1111122,1111122' 
NDBC,ioos:station:NOAA.NDBC:SGOF1:1,2018-09-09T07:00:00Z,29.4080,-84.8580,35.1,2.6,180.0,3.1,'1111122,1111122,1111122' 
NDBC,ioos:station:NOAA.NDBC:SGOF1:1,2018-09-09T08:00:00Z,29.4080,-84.8580,35.1,2.6,210.0,3.1,'1111122,1111122,1111122' 
NDBC,ioos:station:NOAA.NDBC:SGOF1:1,2018-09-09T09:00:00Z,29.4080,-84.8580,35.1,2.1,200.0,2.6,'1111122,1111122,1111122' 
NDBC,ioos:station:NOAA.NDBC:SGOF1:1,2018-09-09T11:00:00Z,29.4080,-84.8580,35.1,2.1,200.0,2.1,'1111122,1111122,1111122' 
NDBC,ioos:station:NOAA.NDBC:SGOF1:1,2018-09-09T12:00:00Z,29.4080,-84.8580,35.1,2.1,200.0,2.6,'1111122,1111122,1111122' 
NDBC,ioos:station:NOAA.NDBC:SGOF1:1,2018-09-09T14:00:00Z,29.4080,-84.8580,35.1,2.1,180.0,2.6,'1111122,1111122,1111122' 
NDBC,ioos:station:NOAA.NDBC:SGOF1:1,2018-09-09T15:00:00Z,29.4080,-84.8580,35.1,1.5,160.0,2.1,'1111122,1111122,1111122' 
NDBC,ioos:station:NOAA.NDBC:SGOF1:1,2018-09-09T17:00:00Z,29.4080,-84.8580,35.1,1.0,170.0,1.5,'1111122,1111122,1111122' 
NDBC,ioos:station:NOAA.NDBC:SGOF1:1,2018-09-09T18:00:00Z,29.4080,-84.8580,35.1,2.1,190.0,2.6,'1111122,1111122,1111122' 
NDBC,ioos:station:NOAA.NDBC:SGOF1:1,2018-09-09T20:00:00Z,29.4080,-84.8580,35.1,3.1,180.0,3.6,'1111122,1111122,1111122' 
NDBC,ioos:station:NOAA.NDBC:SGOF1:1,2018-09-09T21:00:00Z,29.4080,-84.8580,35.1,3.1,210.0,3.6,'1111122,1111122,1111122' 
NDBC,ioos:station:NOAA.NDBC:SGOF1:1,2018-09-09T23:00:00Z,29.4080,-84.8580,35.1,4.1,200.0,4.6,'1111122,1111122,1111122' 
NDBC,ioos:station:NOAA.NDBC:SGOF1:1,2018-09-10T00:00:00Z,29.4080,-84.8580,35.1,5.1,210.0,5.7,'1111122,1111122,1111122' 
NDBC,ioos:station:NOAA.NDBC:SGOF1:1,2018-09-10T02:00:00Z,29.4080,-84.8580,35.1,4.6,200.0,5.1,'1111122,1111122,1111122' 
NDBC,ioos:station:NOAA.NDBC:SGOF1:1,2018-09-10T03:00:00Z,29.4080,-84.8580,35.1,4.1,220.0,4.6,'1111122,1111122,1111122' 
NDBC,ioos:station:NOAA.NDBC:SGOF1:1,2018-09-10T04:00:00Z,29.4080,-84.8580,35.1,4.1,230.0,4.6,'1111122,1111122,1111122' 
NDBC,ioos:station:NOAA.NDBC:SGOF1:1,2018-09-10T05:00:00Z,29.4080,-84.8580,35.1,4.1,240.0,4.6,'1111122,1111122,1111122' 
NDBC,ioos:station:NOAA.NDBC:SGOF1:1,2018-09-10T06:00:00Z,29.4080,-84.8580,35.1,3.6,230.0,3.6,'1111122,1111122,1111122' 
NDBC,ioos:station:NOAA.NDBC:SGOF1:1,2018-09-10T07:00:00Z,29.4080,-84.8580,35.1,3.1,250.0,3.6,'1111122,1111122,1111122' 
NDBC,ioos:station:NOAA.NDBC:SGOF1:1,2018-09-10T08:00:00Z,29.4080,-84.8580,35.1,3.6,240.0,4.1,'1111122,1111122,1111122' 
NDBC,ioos:station:NOAA.NDBC:SGOF1:1,2018-09-10T09:00:00Z,29.4080,-84.8580,35.1,3.6,220.0,4.1,'1111122,1111122,1111122' 
NDBC,ioos:station:NOAA.NDBC:SGOF1:1,2018-09-10T10:00:00Z,29.4080,-84.8580,35.1,3.1,210.0,3.6,'1111122,1111122,1111122' 
NDBC,ioos:station:NOAA.NDBC:SGOF1:1,2018-09-10T11:00:00Z,29.4080,-84.8580,35.1,2.6,220.0,3.1,'1111122,1111122,1111122' 
NDBC,ioos:station:NOAA.NDBC:SGOF1:1,2018-09-10T13:00:00Z,29.4080,-84.8580,35.1,2.6,210.0,3.1,'1111122,1111122,1111122' 